Voltar ao catálogo

CZ-3B R/B

AtivoHEO
NORAD 44077·ROCKET BODY·🇨🇳 China

Lançado Mar 31, 2019 de Xichang Satellite Launch Center

Loading…

Próximas Passagens (próximas 24 horas)

TLE

AtualizadoSource: Space-Track

Época: Sep 14, 2026, 12:02 UTC

1 44077U 19017B   26257.50203574  .00268876  78940-8  79599-3 0  9993
2 44077  26.8215  61.4655 4754983 304.4880  19.2770  6.24706761 95720

Acompanhe CZ-3B R/B em tempo real com AllMySat

Download on the App Store